Regional Weather Roundup
Issued by NWS

Home | Current Version | Previous Version | Text Only | Print | Product List | Glossary On
Versions: 1 2 3 4 5 6 7 8 9 10 11 12 13 14 15 16 17 18 19 20 21 22 23 24 25 26 27 28 29 30 31 32 33 34 35 36 37 38 39 40 41 42 43 44 45 46 47 48 49 50
000
ASUS43 KTOP 291559
RWRKS

WEATHER ROUNDUP FOR KANSAS
NATIONAL WEATHER SERVICE GOODLAND KS
1100 AM CDT SUN MAY 29 2016

NOTE:  "FAIR" INDICATES FEW OR NO CLOUDS BELOW 12,000 FEET WITH NO
SIGNIFICANT WEATHER AND/OR OBSTRUCTIONS TO VISIBILITY.

KSZ001>006-013>018-027>032-041>047-291700-
NORTHWEST KANSAS

CITY           SKY/WX    TMP DP  RH WIND       PRES   REMARKS
GOODLAND       SUNNY     74  52  46 S12       30.13F
HAYS           SUNNY     79  59  50 S9        30.11F
HILL CITY      SUNNY     79  58  48 S9        30.11F
RUSSELL        SUNNY     79  59  50 SW16      30.10F
$$

KSZ061>065-074>080-084>089-291700-
SOUTHWEST KANSAS

CITY           SKY/WX    TMP DP  RH WIND       PRES   REMARKS
DODGE CITY     MOSUNNY   77  60  55 S9        30.13S
ELKHART          N/A     71  58  63 S16         N/A
GARDEN CITY    CLOUDY    75  57  53 SW10      30.13F
GREAT BEND     SUNNY     79  63  57 SW9       30.10F
LIBERAL        PTSUNNY   70  57  64 S12       30.17S
$$

KSZ066>073-081>083-090>101-291700-
SOUTHEAST KANSAS

CITY           SKY/WX    TMP DP  RH WIND       PRES   REMARKS
CHANUTE        MOSUNNY   80  70  71 W8        30.13S
COFFEYVILLE    MOSUNNY   82  72  71 SW7       30.13S
HUTCHINSON     CLOUDY    81  67  62 S7        30.11F
MEDICINE LODGE   N/A     75  63  66 S9        30.14R
NEWTON         SUNNY     79  66  65 SW9       30.16S
PARSONS        MOSUNNY   81  71  71 SW10      30.14F
WICHITA INTL   MOSUNNY   81  71  71 S5        30.11F
WICHITA JABRA  CLOUDY    80  70  71 SW8       30.12F
WINFIELD       CLOUDY    79  71  76 VRB5      30.13F
$$

KSZ007>012-019>026-033>040-048>060-102>105-291700-
NORTHEAST KANSAS

CITY           SKY/WX    TMP DP  RH WIND       PRES   REMARKS
CONCORDIA      MOSUNNY   75  63  66 CALM      30.11F
EMPORIA        SUNNY     81  64  56 W6        30.13R
LAWRENCE       SUNNY     80  64  58 VRB6      30.12R
MANHATTAN      SUNNY     80  61  52 S7        30.11S
OLATHE IND     SUNNY     80  58  46 W7        30.13R
OLATHE EXE     SUNNY     79  58  48 W8        30.13R
SALINA         MOSUNNY   81  64  56 SW8       30.11S
TOPEKA BILLARD SUNNY     82  60  47 SW6       30.11S
TOPEKA FORBES  SUNNY     83  59  44 SW8       30.12R
$$



USA.gov is the U.S. government's official web portal to all federal, state and local government web resources and services.